Location: Beuerbach
(48.1459°N, 10.9174°E)
Time: 23:11:56
(UTC+00:00)

BREEZE-M DEB (TANK) - Pass Details

Date: 23 May 2024
Orbit: 290 x 16913 km, 49.4° (Epoch: 14 June)

Event Time Altitude Azimuth Distance (km) Brightness Sun altitude
Exits shadow 00:07:59 49° 218° (SW) 808 3.2 -20.1°
Maximum altitude 00:08:18 50° 200° (SSW) 833 3.3 -20.1°
Drops below altitude 10° 00:16:05 10° 127° (SE) 4,166 7.0 -19.8°
Sets 00:22:44 0° 124° (SE) 7,038 8.3 -19.5°
